EW8536 Weather Reports


Display with metric or nautical units.
time (UTC)temp
F
wind
direction
speed
MPH
gust
MPH
rain 1hr
in
rain 24hr
in
rain mn
in
humidity
%
barometer
mb
20260506180036 71 135 2.0 8.0 0.00 0.00 0.00 62 1008.2
20260506175016 72 135 3.0 14.0 0.00 0.00 0.00 60 1008.2
20260506174016 72 135 2.0 6.0 0.00 0.00 0.00 62 1008.4
20260506173016 71 135 3.0 8.0 0.00 0.00 0.00 62 1008.6
20260506172016 71 135 2.0 6.0 0.00 0.00 0.00 63 1008.5
20260506171016 71 158 2.0 7.0 0.00 0.00 0.00 64 1008.4
20260506170016 71 158 2.0 5.0 0.00 0.00 0.00 65 1008.5
20260506165016 70 135 2.0 6.0 0.00 0.00 0.00 65 1008.7
20260506164016 70 135 3.0 6.0 0.00 0.00 0.00 64 1008.8
20260506163016 70 135 2.0 6.0 0.00 0.00 0.00 64 1008.9
20260506162016 71 135 2.0 6.0 0.00 0.00 0.00 65 1009.2
20260506161016 71 135 2.0 6.0 0.00 0.00 0.00 64 1009.2
20260506160016 71 135 2.0 6.0 0.00 0.00 0.00 65 1009.4
20260506155015 71 135 3.0 6.0 0.00 0.00 0.00 64 1009.5
20260506154016 71 135 1.0 8.0 0.00 0.00 0.00 63 1009.7
20260506153016 71 135 3.0 9.0 0.00 0.00 0.00 62 1009.9
20260506152016 71 135 2.0 6.0 0.00 0.00 0.00 63 1009.9
20260506151016 71 135 2.0 6.0 0.00 0.00 0.00 64 1009.9
20260506150016 71 135 2.0 8.0 0.00 0.00 0.00 63 1009.9
20260506145016 70 135 3.0 8.0 0.00 0.00 0.00 64 1010.0
20260506144016 70 135 3.0 16.0 0.00 0.00 0.00 64 1009.9
20260506143016 70 135 2.0 8.0 0.00 0.00 0.00 65 1009.7
20260506142016 69 135 3.0 8.0 0.00 0.00 0.00 66 1009.8
20260506141015 69 135 1.0 8.0 0.00 0.00 0.00 68 1009.8